Regional Weather Roundup
Issued by NWS

Home | Current Version | Previous Version | Text Only | Print | Product List | Glossary Off
Versions: 1 2 3 4 5 6 7 8 9 10 11 12 13 14 15 16 17 18 19 20 21 22 23 24 25 26 27 28 29 30 31 32 33 34 35 36 37 38 39 40 41 42 43 44 45 46 47 48 49 50

000
ASUS43 KLSX 231457
RWRMO

WEATHER SUMMARY FOR MISSOURI
NATIONAL WEATHER SERVICE SPRINGFIELD MO
900 AM CST MON JAN 23 2017

NOTE: "FAIR" INDICATES FEW OR NO CLOUDS BELOW 12,000 FEET WITH NO
       SIGNIFICANT WEATHER AND/OR OBSTRUCTIONS TO VISIBILITY.
       CURRENT SKY AND/OR WEATHER CONDITIONS ARE NOT AVAILABLE FOR
       CHILLICOTHE AND FARMINGTON.

MOZ001>031-035>038-043-044-053-054-231600-
...NORTHERN AND WESTERN MISSOURI...

CITY           SKY/WX    TMP DP  RH WIND       PRES   REMARKS
KANSAS CTY INT FOG       32  30  92 NW5       29.90R VSB 1/2 WCI  27
LEE`S SUMMIT   FOG       31  31 100 N8        29.90R VSB 1   WCI  23
ST JOSEPH      CLOUDY    31  31 100 N8        29.91S FOG     WCI  23
CHILLICOTHE      N/A     34  29  82 NW8       29.91R WCI  27

$$
MOZ066>068-077>081-088>096-101>105-231600-
...SOUTHWEST MISSOURI...

CITY           SKY/WX    TMP DP  RH WIND       PRES   REMARKS
SPRINGFIELD    CLOUDY    37  35  92 NW7       29.89R
JOPLIN         PTSUNNY   36  35  96 CALM      29.91F
BRANSON        CLOUDY    37  36  93 NW9       29.90R

$$
MOZ032>034-039>042-045>050-055>058-069>072-231600-
...CENTRAL MISSOURI...

CITY           SKY/WX    TMP DP  RH WIND       PRES   REMARKS
COLUMBIA       NOT AVBL
JEFFERSON CITY CLOUDY    39  36  89 W9        29.88R
ROLLA          CLOUDY    38  36  92 NW9       29.84R
SEDALIA        CLOUDY    36  34  92 N7        29.90R FOG
WHITEMAN AFB   FOG       32  32 100 N7        29.89R VSB 3/4 WCI  26
WARRENSBURG    CLOUDY    32  32 100 NW5       29.90S FOG     WCI  27

$$
MOZ051-052-059>065-231600-
...EAST CENTRAL MISSOURI...

CITY           SKY/WX    TMP DP  RH WIND       PRES   REMARKS
ST LOUIS INTL  CLOUDY    42  36  79 N14       29.81F

$$
MOZ072>076-082>087-097>100-106>115-231600-
...SOUTH CENTRAL AND SOUTHEAST MISSOURI...

CITY           SKY/WX    TMP DP  RH WIND       PRES   REMARKS
CAPE GIRARDEAU CLOUDY    43  35  73 N23G36    29.78R
POPLAR BLUFF   SUNNY     45  36  70 N15G21    29.80R
WEST PLAINS    CLOUDY    41  34  76 N12G23    29.85R

$$


USA.gov is the U.S. government's official web portal to all federal, state and local government web resources and services.